Location: Copeville
(33.0796°N, 96.4155°W)
Time: 18:44:32
(UTC+00:00)

Cosmos 1328 Rocket - Pass Details

Date: 06 July 2022
Orbit: 600 x 627 km, 82.5° (Epoch: 17 August)

Event Time Altitude Azimuth Distance (km) Brightness Sun altitude
Rises 07:34:08 0° 13° (NNE) 2,895 8.1 -32.2°
Reaches altitude 10° 07:37:01 10° 32° (NNE) 1,979 7.0 -32.0°
Enters shadow 07:39:42 18° 71° (ENE) 1,528 5.9 -31.8°
